This demonstration page uses our WeatherBlox Daily Observations layout. Learn more.

Left ArrowRight Arrow

Hourly Observations for August 13, 2020

Temp ( °F °C ) Dew Point ( °F °C ) Humidity (%) Winds ( mph kmh ) Pressure ( in mb ) Visibility ( mi km ) Precip ( " mm )
12:53 am 00:53 Clear 72 22.2 68 20 87 87 S 7 11 29.92 1013 10 16 0.00 0.00
1:53 am 01:53 Clear 71 21.7 68 20 90 90 S 3 6 29.92 1013 10 16 0.00 0.00
2:53 am 02:53 Clear 72 22.2 69 20.6 91 91 SE 6 9 29.92 1013 10 16 0.00 0.00
3:53 am 03:53 Mostly Clear 72 22.2 69 20.6 91 91 SSE 8 13 29.93 1014 10 16 0.00 0.00
4:53 am 04:53 Cloudy 72 22.2 69 20.6 91 91 S 6 9 29.94 1014 10 16 0.00 0.00
5:53 am 05:53 Mostly Cloudy 72 22.2 69 20.6 91 91 SE 9 15 29.92 1013 10 16 0.00 0.00
6:04 am 06:04 Mostly Cloudy 72 22 70 21 94 94 SE 8 13 29.90 1013 10 16 0.00 0.00
6:11 am 06:11 Mostly Cloudy 72 22.2 69 20.6 91 91 SE 9 15 29.89 1012 10 16 0.00 0.00
6:46 am 06:46 Mostly Cloudy 72 22.2 69 20.6 91 91 SE 10 17 29.88 1012 10 16 0.00 0.00
6:53 am 06:53 Mostly Cloudy 72 22.2 69 20.6 91 91 SSE 9 15 29.90 1012 10 16 0.00 0.00
7:03 am 07:03 Partly Cloudy 72 22.2 69 20.6 91 91 SE 8 13 29.88 1012 10 16 0.00 0.00
7:29 am 07:29 Mostly Sunny 71 21.7 69 20.6 94 94 SE 10 17 29.88 1012 10 16 0.00 0.00
7:53 am 07:53 Partly Cloudy 72 22.2 69 20.6 91 91 SSE 12 19 29.92 1013 10 16 0.00 0.00
8:32 am 08:32 Mostly Cloudy 72 22.2 69 20.6 91 91 SE 14 22 29.91 1013 10 16 0.00 0.00
8:53 am 08:53 Cloudy 73 22.8 69 20.6 87 87 S 9 15 29.96 1015 10 16 0.00 0.00
9:53 am 09:53 Cloudy 76 24.4 70 21.1 82 82 S 13 20 29.96 1015 10 16 0.00 0.00
10:34 am 10:34 Mostly Cloudy 78 25.6 70 21.1 76 76 S 12 19 29.92 1013 10 16 0.00 0.00
10:41 am 10:41 Mostly Cloudy 78 25.6 70 21.1 76 76 SSW 14 22 29.92 1013 10 16 0.00 0.00
10:53 am 10:53 Mostly Cloudy 79 26.1 70 21.1 74 74 SSW 13 20 29.97 1015 10 16 0.00 0.00
11:53 am 11:53 Mostly Cloudy 82 27.8 70 21.1 67 67 SSW 10 17 29.96 1015 10 16 0.00 0.00
12:11 pm 12:11 Mostly Sunny 83 28.3 71 21.7 67 67 SW 10 17 29.89 1012 10 16 0.00 0.00
12:53 pm 12:53 Mostly Cloudy 83 28.3 71 21.7 67 67 SSW 7 11 29.95 1014 10 16 0.00 0.00
1:46 pm 13:46 Mostly Cloudy 86 30 71 21.7 61 61 SW 9 15 29.86 1011 10 16 0.00 0.00
1:53 pm 13:53 Mostly Cloudy 87 30.6 71 21.7 59 59 SW 9 15 29.93 1014 10 16 0.00 0.00
2:53 pm 14:53 Sunny 89 31.7 68 20 50 50 SSW 14 22 29.91 1013 10 16 0.00 0.00
3:53 pm 15:53 Sunny 90 32.2 66 18.9 45 45 S 10 17 29.89 1012 10 16 0.00 0.00
4:53 pm 16:53 Sunny 91 32.8 65 18.3 42 42 SSW 13 20 29.88 1012 10 16 0.00 0.00
5:53 pm 17:53 Sunny 88 31.1 69 20.6 54 54 SSE 13 20 29.88 1012 10 16 0.00 0.00
6:53 pm 18:53 Sunny 86 30 69 20.6 57 57 S 10 17 29.88 1012 10 16 0.00 0.00
7:53 pm 19:53 Sunny 83 28.3 67 19.4 59 59 SSE 12 19 29.89 1012 10 16 0.00 0.00
8:53 pm 20:53 Clear 80 26.7 64 17.8 58 58 SSE 12 19 29.92 1013 10 16 0.00 0.00
9:53 pm 21:53 Clear 77 25 65 18.3 66 66 S 6 9 29.94 1014 10 16 0.00 0.00
10:53 pm 22:53 Clear 75 23.9 67 19.4 76 76 undefined N/A 29.93 1014 10 16 0.00 0.00
11:53 pm 23:53 Clear 74 23.3 67 19.4 79 79 S 7 11 29.93 1013 10 16 0.00 0.00

Powered by AerisWeather